Flag for Spain Weather past 2 weeks in Santa Cruz de Tenerife, Canary Islands, Spain

Now
64 °F

Passing clouds.


Feels Like: 64 °F
Forecast: 68 / 75 °F
Wind: 6 mph from North

Location: Tenerife Sur

Current Time: May 28, 2015 at 3:29:40 AM

Latest Report: May 28, 2015 at 3:00 AM


Visibility: N/A

Pressure: 30.04 "Hg

Humidity: 73%

Dew point: 55 °F

Location of Santa Cruz de TenerifeLocation

Historic Weather in Santa Cruz de Tenerife — Graph

°F

Santa Cruz de Tenerife temperature yesterday

Maximum temperature yesterday: 73 °F (at 2:00 PM)
Minimum temperature yesterday: 61 °F (at 4:30 AM)
Average temperature yesterday: 68 °F

Past Weeks' High & Low Weather Summary

 TemperatureHumidityPressure
High97 °F (May 14, 11:00 AM)88% (May 13, 2:00 AM)30.21 "Hg (May 13, 2:00 AM)
Low61 °F (May 21, 7:30 AM)11% (May 14, 10:30 AM)29.95 "Hg (May 13, 5:00 AM)
Average72 °F61%30.08 "Hg
* Reported May 13 2:00 AM — May 28 2:00 AM, Santa Cruz de Tenerife, Weather by CustomWeather, © 2015

Note: Actual official high and low records may vary slightly from our data, if they occured in-between our weather recording intervals... More about our weather records

Advertising

Santa Cruz de Tenerife weather history for previous 24 hours

 ConditionsComfort  
Time TempWeatherWind HumidityBarometerVisibility
2:00 AM
Thu, May 28
64 °FPassing clouds.6 mph83%30.04 "HgN/A
1:30 AM66 °FPassing clouds.3 mph83%30.07 "HgN/A
1:00 AM66 °FPassing clouds.3 mph83%30.07 "HgN/A
12:30 AM66 °FPassing clouds.3 mph83%30.07 "HgN/A
12:00 AM66 °FPassing clouds.2 mph78%30.07 "HgN/A
11:30 PM
Wed, May 27
66 °FPassing clouds.No wind83%30.07 "HgN/A
11:00 PM66 °FPassing clouds.1 mph83%30.07 "HgN/A
10:30 PM66 °FPassing clouds.2 mph83%30.07 "HgN/A
10:00 PM68 °FPassing clouds.No wind78%30.07 "HgN/A
9:30 PM68 °FPartly sunny.3 mph78%30.04 "HgN/A
9:00 PM68 °FPartly sunny.2 mph78%30.04 "HgN/A
8:30 PM68 °FPartly sunny.6 mph78%30.04 "HgN/A
8:00 PM68 °FPartly sunny.7 mph78%30.04 "HgN/A
7:30 PM68 °FPartly sunny.8 mph78%30.04 "HgN/A
7:00 PM68 °FPartly sunny.8 mph78%30.04 "HgN/A
6:30 PM68 °FPartly sunny.8 mph78%30.04 "HgN/A
6:00 PM68 °FPartly sunny.9 mph78%30.04 "HgN/A
5:30 PM70 °FPartly sunny.10 mph73%30.04 "HgN/A
5:00 PM70 °FPartly sunny.12 mph73%30.04 "HgN/A
4:30 PM70 °FScattered clouds.10 mph73%30.04 "HgN/A
4:00 PM70 °FScattered clouds.12 mph69%30.04 "HgN/A
3:30 PM72 °FScattered clouds.9 mph61%30.07 "HgN/A
3:00 PM72 °FScattered clouds.8 mph61%30.07 "HgN/A
2:30 PM72 °FScattered clouds.9 mph57%30.07 "HgN/A
2:00 PM73 °FScattered clouds.9 mph57%30.07 "HgN/A
1:30 PM72 °FPassing clouds.9 mph61%30.07 "HgN/A
1:00 PM72 °FPassing clouds.10 mph57%30.07 "HgN/A
12:30 PM72 °FPassing clouds.12 mph57%30.07 "HgN/A
12:00 PM72 °FPassing clouds.13 mph57%30.07 "HgN/A
11:30 AM72 °FPassing clouds.13 mph57%30.07 "HgN/A
11:00 AM72 °FPassing clouds.10 mph61%30.07 "HgN/A
10:30 AM72 °FPassing clouds.9 mph57%30.07 "HgN/A
10:00 AM70 °FPassing clouds.7 mph64%30.07 "HgN/A
9:30 AM70 °FPassing clouds.6 mph60%30.07 "HgN/A
9:00 AM68 °FPassing clouds.3 mph64%30.07 "HgN/A
8:30 AM68 °FPassing clouds.3 mph64%30.07 "HgN/A
8:00 AM66 °FPassing clouds.5 mph68%30.07 "HgN/A
7:30 AM63 °FPassing clouds.5 mph73%30.04 "HgN/A
7:00 AM64 °FPassing clouds.5 mph73%30.04 "HgN/A
6:30 AM64 °FPassing clouds.5 mph73%30.04 "HgN/A
6:00 AM64 °FPassing clouds.3 mph73%30.04 "HgN/A
5:30 AM63 °FPassing clouds.2 mph73%30.04 "HgN/A
5:00 AM63 °FPassing clouds.3 mph68%30.04 "HgN/A
4:30 AM61 °FPassing clouds.6 mph77%30.04 "HgN/A
4:00 AM63 °FPassing clouds.5 mph77%30.04 "HgN/A
3:30 AM64 °FPassing clouds.5 mph73%30.07 "HgN/A
3:00 AM64 °FPassing clouds.3 mph73%30.07 "HgN/A
Weather by CustomWeather, © 2015

See weather overviewHow to use our weather pages